Weather Roundup
Issued by NWS Springfield, MO

Home | Current Version | Previous Version | Text Only | Print | Product List | Glossary On
Versions: 1 2 3 4 5 6 7 8 9 10 11 12 13 14 15 16 17 18 19 20 21 22 23 24 25 26 27 28 29 30 31 32 33 34 35 36 37 38 39 40 41 42 43 44 45 46 47 48 49 50
000
NZUS99 KSGF 181707
HRRSGF

HOURLY WEATHER
NATIONAL WEATHER SERVICE SPRINGFIELD MO
1200 PM CDT FRI APR 18 2014

......SGF CWA......

CITY           SKY/WX    TMP DP  RH WIND       PRES   REMARKS
SPRINGFIELD    SUNNY     66  40  38 VRB5      30.28S
JOPLIN         SUNNY     64  42  44 VRB5      30.29F
WEST PLAINS    SUNNY     67  40  37 N3        30.27F
ROLLA          SUNNY     62  42  47 CALM      30.29F
OSAGE BEACH    SUNNY     63  39  42 NE8       30.32F
BRANSON        MOSUNNY   64  39  39 S6        30.28F

......SURROUNDING SGF CWA......

CITY           SKY/WX    TMP DP  RH WIND       PRES   REMARKS
CHANUTE        SUNNY     62  42  47 VRB6      30.29F
PARSONS        SUNNY     65  44  46 CALM      30.29F
COFFEYVILLE    SUNNY     63  44  50 VRB5      30.28F
EMPORIA        SUNNY     60  40  47 SE8       30.27F
GROVE OK       SUNNY     68  43  40 NE7       30.28F
ROGERS AR      SUNNY     65  40  39 NW3       30.27F
SILOAM SPRINGS SUNNY     66  43  42 N7        30.28F
HARRISON AR    SUNNY     66  41  40 VRB6      30.28S
NEAR YELLVILLE SUNNY     66  41  39 N3        30.27F

......KANSAS AND MISSOURI......

CITY           SKY/WX    TMP DP  RH WIND       PRES   REMARKS
KANSAS CTY INT SUNNY     58  36  43 VRB6      30.30F
DOWNTOWN KC    SUNNY     60  39  45 VRB5      30.30F
COLUMBIA       SUNNY     61  42  49 CALM      30.32F
SEDALIA        SUNNY     59  44  57 E7        30.33F
ST JOSEPH      SUNNY     57  36  45 VRB6      30.31F
ST LOUIS       MOSUNNY   64  41  42 VRB3      30.33S
SPIRIT OF STL  SUNNY     61  42  49 CALM      30.32F
KIRKSVILLE     SUNNY     56  36  47 VRB3      30.34F
WICHITA        MOSUNNY   61  42  49 SE10      30.25F
TOPEKA         SUNNY     59  39  47 SE8       30.29F
OLATHE         SUNNY     58  40  51 SE7       30.29F

......TENNESSEE......

CITY           SKY/WX    TMP DP  RH WIND       PRES   REMARKS
MEMPHIS        PTSUNNY   68  49  50 CALM      30.24F
NASHVILLE      CLOUDY    63  40  42 CALM      30.30F

......ARKANSAS.......

CITY           SKY/WX    TMP DP  RH WIND       PRES   REMARKS
FAYETTEVILLE   SUNNY     66  40  38 CALM      30.27F
FT SMITH       SUNNY     70  45  40 VRB5      30.26F
LITTLE ROCK    PTSUNNY   68  46  45 NE7       30.25F

......OKLAHOMA.......

CITY           SKY/WX    TMP DP  RH WIND       PRES   REMARKS
TULSA          SUNNY     66  44  45 VRB5      30.26F
PONCA CITY     SUNNY     64  41  42 SE8       30.26F
MCALESTER      MOSUNNY   69  43  38 N8        30.26F
OKLAHOMA CITY  SUNNY     66  41  40 SE10      30.26F

......IOWA............

CITY           SKY/WX    TMP DP  RH WIND       PRES   REMARKS
DES MOINES     MOSUNNY   55  36  48 S8        30.32F
QUAD CITIES    SUNNY     52  31  44 CALM      30.36S

......ILLINOIS........

CITY           SKY/WX    TMP DP  RH WIND       PRES   REMARKS
QUINCY         SUNNY     58  37  45 VRB6      30.34F
CHICAGO          N/A     50  34  54 NE9       30.36R




USA.gov is the U.S. government's official web portal to all federal, state and local government web resources and services.